Home > Time Zones > World Clock > Weather > Iran > Ahvaz > Past weeks

Flag for Iran Weather past 2 weeks in Ahvaz, Iran

Now
91 °F

Haze.


Feels Like: 105 °F
Forecast: 89 / 118 °F
Wind: 5 mph from Northeast

Location: Ahwaz

Current Time: Aug 5, 2015 at 9:04:00 AM

Latest Report: Aug 5, 2015 at 8:30 AM


Visibility: 3 mi

Pressure: 29.56 "Hg

Humidity: 63%

Dew point: 77 °F

Location of AhvazLocation

Historic Weather in Ahvaz — Graph

°F

Ahvaz temperature yesterday

Maximum temperature yesterday: 117 °F (at 3:30 PM)
Minimum temperature yesterday: 88 °F (at 6:30 AM)
Average temperature yesterday: 103 °F

Past Weeks' High & Low Weather Summary

 TemperatureHumidityPressure
High122 °F (Jul 30, 3:00 PM)84% (Aug 3, 7:30 AM)29.59 "Hg (Aug 3, 7:30 AM)
Low84 °F (Jul 24, 7:30 AM)10% (Jul 30, 3:00 PM)29.33 "Hg (Jul 26, 5:30 PM)
Average105 °F30%29.45 "Hg
* Reported Jul 21 6:30 AM — Aug 5 6:30 AM, Ahvaz, Weather by CustomWeather, © 2015

Note: Actual official high and low records may vary slightly from our data, if they occured in-between our weather recording intervals... More about our weather records

Advertising

Ahvaz weather history for previous 24 hours

 ConditionsComfort  
Time TempWeatherWind HumidityBarometerVisibility
6:30 AM
Wed, Aug 5
90 °FHaze.No wind63%29.53 "Hg2 mi
5:30 AM88 °FHaze.No wind66%29.53 "Hg2 mi
4:30 AM90 °FHaze.2 mph67%29.53 "Hg3 mi
3:30 AM91 °FClear.2 mph46%29.53 "Hg4 mi
2:30 AM91 °FClear.5 mph46%29.53 "Hg4 mi
1:30 AM93 °FClear.5 mph44%29.53 "Hg5 mi
1:00 AM95 °FClear.No wind50%29.56 "Hg5 mi
12:30 AM95 °FClear.No wind50%29.56 "Hg5 mi
12:00 AM97 °FClear.2 mph42%29.53 "Hg5 mi
11:30 PM
Tue, Aug 4
99 °FClear.2 mph39%29.53 "Hg10 mi
11:00 PM99 °FClear.5 mph37%29.53 "Hg10 mi
10:30 PM100 °FClear.7 mph35%29.53 "Hg10 mi
10:00 PM100 °FClear.7 mph29%29.50 "Hg10 mi
9:30 PM102 °FSunny.5 mph27%29.50 "Hg10 mi
9:00 PM104 °FSunny.9 mph24%29.50 "Hg10 mi
8:30 PM106 °FSunny.5 mph23%29.50 "Hg10 mi
8:00 PM109 °FSunny.5 mph17%29.50 "Hg10 mi
7:30 PM111 °FSunny.7 mph16%29.47 "Hg10 mi
7:00 PM111 °FSunny.7 mph17%29.47 "Hg10 mi
6:30 PM113 °FSunny.9 mph14%29.47 "Hg10 mi
6:00 PM115 °FSunny.9 mph14%29.50 "Hg10 mi
5:30 PM115 °FSunny.12 mph15%29.50 "Hg10 mi
5:00 PM117 °FSunny.9 mph15%29.50 "Hg10 mi
4:30 PM117 °FSunny.7 mph15%29.50 "Hg10 mi
4:00 PM117 °FSunny.7 mph14%29.50 "Hg10 mi
3:30 PM117 °FSunny.7 mph14%29.53 "Hg10 mi
3:00 PM115 °FSunny.7 mph18%29.53 "Hg10 mi
2:30 PM113 °FSunny.5 mph19%29.53 "Hg10 mi
2:00 PM111 °FSunny.5 mph22%29.56 "Hg10 mi
1:30 PM111 °FPassing clouds.7 mph24%29.56 "HgN/A
1:00 PM109 °FClear.5 mph28%29.56 "Hg4 mi
12:30 PM106 °FClear.5 mph34%29.59 "Hg4 mi
11:55 AM104 °FClear.5 mph35%29.59 "Hg4 mi
11:30 AM99 °FBroken clouds.7 mph47%29.59 "Hg4 mi
11:00 AM99 °FBroken clouds.7 mph50%29.59 "Hg3 mi
10:30 AM99 °FBroken clouds.No wind50%29.59 "Hg3 mi
10:00 AM99 °FPartly sunny.2 mph47%29.59 "Hg2 mi
9:30 AM95 °FPartly sunny.5 mph60%29.56 "Hg2 mi
9:00 AM91 °FScattered clouds.5 mph63%29.56 "Hg2 mi
Weather by CustomWeather, © 2015

See weather overviewHow to use our weather pages